• En Colombia
  • Lista de países
  • Para 7 días
  • Temperatura del agua
  • El tiempo en el mapa
  • Informadores
  • user-avatar
    Iniciar sesión

    Tiempo cada hora Sydney

    Hoy, 21 Enero, Martes

    Tiempo Temperatura Precipitaciones Viento Presión Humedad
    00:00 +23°C° 0 mm 2 mps 752 mmHg 81%
    01:00 +21°C° 0 mm 2 mps 752 mmHg 79%
    02:00 +20°C° 0 mm 3 mps 752 mmHg 75%
    03:00 +20°C° 0 mm 3 mps 752 mmHg 72%
    04:00 +19°C° 0 mm 2 mps 752 mmHg 67%
    05:00 +20°C° 0 mm 2 mps 753 mmHg 63%
    06:00 +21°C° 0 mm 3 mps 754 mmHg 59%
    07:00 +22°C° 0 mm 3 mps 754 mmHg 56%
    08:00 +26°C° 0 mm 3 mps 754 mmHg 47%
    09:00 +29°C° 0 mm 2 mps 755 mmHg 39%
    10:00 +32°C° 0 mm 1 mps 755 mmHg 31%
    11:00 +34°C° 0 mm 2 mps 755 mmHg 29%
    12:00 +35°C° 0 mm 3 mps 754 mmHg 27%
    13:00 +36°C° 0 mm 4 mps 754 mmHg 26%
    14:00 +34°C° 0 mm 5 mps 754 mmHg 31%
    15:00 +33°C° 0 mm 5 mps 754 mmHg 36%
    16:00 +30°C° 0 mm 6 mps 753 mmHg 41%
    17:00 +28°C° 0 mm 5 mps 754 mmHg 47%
    18:00 +27°C° 0 mm 4 mps 755 mmHg 54%
    19:00 +26°C° 0 mm 3 mps 755 mmHg 61%
    20:00 +25°C° 0 mm 3 mps 756 mmHg 65%
    21:00 +25°C° 0 mm 2 mps 756 mmHg 69%
    22:00 +24°C° 0 mm 2 mps 756 mmHg 73%
    23:00 +24°C° 0 mm 2 mps 756 mmHg 76%

    Mañana, 22 Enero, Miércoles

    Tiempo Temperatura Precipitaciones Viento Presión Humedad
    00:00 +23°C° 0 mm 2 mps 756 mmHg 79%
    01:00 +23°C° 0 mm 2 mps 756 mmHg 82%
    02:00 +23°C° 0 mm 2 mps 756 mmHg 82%
    03:00 +21°C° 0 mm 2 mps 756 mmHg 83%
    04:00 +21°C° 0 mm 2 mps 756 mmHg 83%
    05:00 +23°C° 0 mm 2 mps 756 mmHg 78%
    06:00 +24°C° 0 mm 1 mps 757 mmHg 73%
    07:00 +25°C° 0 mm 1 mps 757 mmHg 69%
    08:00 +28°C° 0 mm 2 mps 757 mmHg 58%
    09:00 +30°C° 0 mm 2 mps 757 mmHg 47%
    10:00 +34°C° 0 mm 2 mps 756 mmHg 36%
    11:00 +36°C° 0 mm 3 mps 756 mmHg 31%
    12:00 +37°C° 0 mm 4 mps 755 mmHg 27%
    13:00 +40°C° 0 mm 5 mps 754 mmHg 22%
    14:00 +39°C° 0 mm 6 mps 754 mmHg 25%
    15:00 +38°C° 0 mm 6 mps 753 mmHg 28%
    16:00 +36°C° 0 mm 7 mps 752 mmHg 31%
    17:00 +34°C° 0 mm 7 mps 753 mmHg 36%
    18:00 +32°C° 0 mm 7 mps 753 mmHg 41%
    19:00 +29°C° 0 mm 7 mps 753 mmHg 46%
    20:00 +29°C° 0 mm 7 mps 753 mmHg 46%
    21:00 +28°C° 0 mm 7 mps 753 mmHg 45%
    22:00 +28°C° 0 mm 7 mps 753 mmHg 44%
    23:00 +27°C° 0 mm 6 mps 753 mmHg 44%

    Pasado mañana, 23 Enero, Jueves

    Tiempo Temperatura Precipitaciones Viento Presión Humedad
    00:00 +26°C° 0 mm 5 mps 752 mmHg 44%
    01:00 +25°C° 0 mm 4 mps 752 mmHg 45%
    02:00 +25°C° 0 mm 4 mps 752 mmHg 42%
    03:00 +26°C° 0 mm 5 mps 751 mmHg 40%
    04:00 +26°C° 0 mm 5 mps 751 mmHg 37%
    05:00 +27°C° 0 mm 6 mps 751 mmHg 38%
    06:00 +29°C° 0 mm 7 mps 751 mmHg 39%
    07:00 +31°C° 0 mm 8 mps 751 mmHg 40%
    08:00 +34°C° 0 mm 8 mps 751 mmHg 34%
    09:00 +38°C° 0 mm 8 mps 751 mmHg 28%
    10:00 +41°C° 0 mm 8 mps 750 mmHg 21%
    11:00 +44°C° 0 mm 8 mps 750 mmHg 20%
    12:00 +45°C° 0 mm 8 mps 749 mmHg 18%
    13:00 +46°C° 0 mm 8 mps 749 mmHg 17%
    14:00 +45°C° 0 mm 8 mps 749 mmHg 18%
    15:00 +45°C° 0 mm 7 mps 748 mmHg 20%
    16:00 +44°C° 0 mm 7 mps 748 mmHg 21%
    17:00 +41°C° 0 mm 7 mps 749 mmHg 23%
    18:00 +40°C° 0 mm 7 mps 749 mmHg 26%
    19:00 +39°C° 0 mm 6 mps 750 mmHg 28%
    20:00 +36°C° 0 mm 6 mps 751 mmHg 32%
    21:00 +35°C° 0 mm 6 mps 751 mmHg 36%
    22:00 +34°C° 0 mm 6 mps 752 mmHg 40%
    23:00 +32°C° 0.1 mm 5 mps 752 mmHg 47%

    24 Enero, Viernes

    Tiempo Temperatura Precipitaciones Viento Presión Humedad
    00:00 +29°C° 0.1 mm 4 mps 752 mmHg 54%
    01:00 +28°C° 0.1 mm 4 mps 752 mmHg 60%
    02:00 +27°C° 0.4 mm 3 mps 752 mmHg 64%
    03:00 +25°C° 0.4 mm 3 mps 753 mmHg 67%
    04:00 +24°C° 0.4 mm 3 mps 753 mmHg 70%
    05:00 +25°C° 0.1 mm 3 mps 753 mmHg 67%
    06:00 +26°C° 0.1 mm 2 mps 754 mmHg 64%
    07:00 +26°C° 0.1 mm 2 mps 754 mmHg 61%
    08:00 +29°C° 0.1 mm 2 mps 754 mmHg 54%
    09:00 +31°C° 0.1 mm 1 mps 754 mmHg 47%
    10:00 +33°C° 0.1 mm 1 mps 754 mmHg 40%
    11:00 +36°C° 0 mm 2 mps 754 mmHg 37%
    12:00 +37°C° 0 mm 3 mps 754 mmHg 35%
    13:00 +39°C° 0 mm 5 mps 753 mmHg 33%
    14:00 +36°C° 0 mm 5 mps 753 mmHg 39%
    15:00 +34°C° 0 mm 6 mps 752 mmHg 46%
    16:00 +32°C° 0 mm 7 mps 752 mmHg 52%
    17:00 +30°C° 0 mm 5 mps 753 mmHg 60%
    18:00 +29°C° 0 mm 4 mps 753 mmHg 69%
    19:00 +28°C° 0 mm 2 mps 754 mmHg 77%
    20:00 +27°C° 0 mm 2 mps 755 mmHg 78%
    21:00 +27°C° 0 mm 1 mps 755 mmHg 79%
    22:00 +26°C° 0 mm 1 mps 756 mmHg 79%
    23:00 +26°C° 0 mm 2 mps 756 mmHg 69%

    25 Enero, Sábado

    Tiempo Temperatura Precipitaciones Viento Presión Humedad
    00:00 +25°C° 0 mm 4 mps 756 mmHg 59%
    01:00 +25°C° 0 mm 5 mps 756 mmHg 49%
    02:00 +23°C° 0 mm 5 mps 756 mmHg 56%
    03:00 +22°C° 0 mm 5 mps 756 mmHg 64%
    04:00 +21°C° 0 mm 5 mps 756 mmHg 72%
    05:00 +22°C° 0 mm 5 mps 756 mmHg 69%
    06:00 +23°C° 0 mm 4 mps 757 mmHg 67%
    07:00 +25°C° 0 mm 4 mps 757 mmHg 65%
    08:00 +27°C° 0 mm 4 mps 757 mmHg 60%
    09:00 +29°C° 0 mm 4 mps 757 mmHg 56%
    10:00 +32°C° 0 mm 4 mps 757 mmHg 51%
    11:00 +33°C° 0 mm 4 mps 756 mmHg 47%
    12:00 +34°C° 0 mm 4 mps 756 mmHg 44%
    13:00 +35°C° 0 mm 4 mps 755 mmHg 40%
    14:00 +35°C° 0 mm 4 mps 755 mmHg 44%
    15:00 +34°C° 0 mm 5 mps 755 mmHg 47%
    16:00 +33°C° 0 mm 5 mps 754 mmHg 51%
    17:00 +32°C° 0 mm 4 mps 755 mmHg 59%
    18:00 +29°C° 0 mm 3 mps 755 mmHg 67%
    19:00 +28°C° 0 mm 2 mps 756 mmHg 76%
    20:00 +27°C° 0 mm 2 mps 756 mmHg 79%
    21:00 +27°C° 0 mm 2 mps 756 mmHg 82%
    22:00 +26°C° 0 mm 1 mps 757 mmHg 86%
    23:00 +26°C° 0 mm 1 mps 757 mmHg 87%

    26 Enero, Domingo

    Tiempo Temperatura Precipitaciones Viento Presión Humedad
    00:00 +26°C° 0 mm 1 mps 756 mmHg 88%
    01:00 +26°C° 0 mm 2 mps 756 mmHg 89%
    02:00 +26°C° 0 mm 2 mps 756 mmHg 87%
    03:00 +26°C° 0 mm 2 mps 756 mmHg 86%
    04:00 +26°C° 0 mm 3 mps 756 mmHg 85%
    05:00 +26°C° 0 mm 2 mps 756 mmHg 81%
    06:00 +27°C° 0 mm 2 mps 756 mmHg 78%
    07:00 +27°C° 0 mm 2 mps 757 mmHg 74%
    08:00 +30°C° 0 mm 2 mps 757 mmHg 62%
    09:00 +34°C° 0 mm 2 mps 757 mmHg 50%
    10:00 +36°C° 0 mm 1 mps 757 mmHg 38%
    11:00 +38°C° 0 mm 3 mps 756 mmHg 33%
    12:00 +40°C° 0 mm 4 mps 756 mmHg 29%
    13:00 +41°C° 0 mm 5 mps 755 mmHg 25%
    14:00 +40°C° 0 mm 5 mps 755 mmHg 32%
    15:00 +38°C° 0 mm 6 mps 754 mmHg 40%
    16:00 +35°C° 0 mm 6 mps 754 mmHg 48%
    17:00 +34°C° 0 mm 6 mps 754 mmHg 55%
    18:00 +32°C° 0 mm 5 mps 755 mmHg 62%
    19:00 +30°C° 0 mm 5 mps 755 mmHg 69%
    20:00 +29°C° 0 mm 4 mps 756 mmHg 72%
    21:00 +28°C° 0 mm 3 mps 756 mmHg 75%
    22:00 +28°C° 0 mm 2 mps 756 mmHg 78%
    23:00 +27°C° 0 mm 2 mps 756 mmHg 79%
    Mostrar más